TimeEST,TemperatureF,Dew PointF,Humidity,Sea Level PressureIn,VisibilityMPH,Wind Direction,Wind SpeedMPH,Gust SpeedMPH,PrecipitationIn,Events,Conditions,WindDirDegrees,DateUTC
12:54 AM,21.9,3.9,46,30.33,10.0,West,11.5,-,N/A,,Clear,280,2013-02-02 05:54:00
1:54 AM,21.9,3.9,46,30.34,10.0,West,10.4,-,N/A,,Clear,280,2013-02-02 06:54:00
2:54 AM,21.0,3.9,48,30.35,10.0,West,11.5,-,N/A,,Clear,280,2013-02-02 07:54:00
3:54 AM,19.9,3.9,50,30.34,10.0,West,6.9,-,N/A,,Clear,270,2013-02-02 08:54:00
4:54 AM,19.9,1.9,46,30.34,10.0,West,9.2,-,N/A,,Partly Cloudy,280,2013-02-02 09:54:00
5:54 AM,19.0,3.0,50,30.35,10.0,West,8.1,-,N/A,,Partly Cloudy,260,2013-02-02 10:54:00
6:54 AM,18.0,3.9,54,30.35,10.0,WSW,5.8,-,N/A,,Partly Cloudy,240,2013-02-02 11:54:00
7:54 AM,19.0,3.9,52,30.35,10.0,WSW,5.8,-,N/A,,Scattered Clouds,250,2013-02-02 12:54:00
8:54 AM,21.0,3.9,48,30.35,10.0,WSW,10.4,-,N/A,,Scattered Clouds,250,2013-02-02 13:54:00
9:54 AM,23.0,5.0,46,30.32,10.0,WSW,6.9,-,N/A,,Scattered Clouds,240,2013-02-02 14:54:00
10:54 AM,25.0,3.9,41,30.31,10.0,SW,12.7,-,N/A,,Mostly Cloudy,230,2013-02-02 15:54:00
11:54 AM,27.0,3.9,37,30.28,10.0,West,15.0,-,N/A,,Mostly Cloudy,260,2013-02-02 16:54:00
12:54 PM,28.9,3.9,35,30.23,10.0,WSW,15.0,21.9,N/A,,Mostly Cloudy,240,2013-02-02 17:54:00
1:54 PM,30.0,6.1,36,30.20,10.0,SW,12.7,-,N/A,,Mostly Cloudy,220,2013-02-02 18:54:00
2:54 PM,30.0,6.1,36,30.18,10.0,SW,16.1,-,N/A,,Mostly Cloudy,230,2013-02-02 19:54:00
3:54 PM,28.9,7.0,40,30.16,10.0,SW,15.0,-,N/A,,Overcast,220,2013-02-02 20:54:00
4:54 PM,28.9,7.0,40,30.14,10.0,SW,15.0,-,N/A,,Overcast,230,2013-02-02 21:54:00
5:54 PM,28.9,9.0,43,30.12,10.0,South,12.7,17.3,N/A,,Overcast,190,2013-02-02 22:54:00
6:54 PM,28.9,12.9,51,30.12,10.0,South,15.0,-,N/A,,Overcast,190,2013-02-02 23:54:00
7:30 PM,26.6,17.6,69,30.12,7.0,SSW,11.5,-,0.00,Snow,Light Snow,200,2013-02-03 00:30:00
7:42 PM,28.4,17.6,64,30.12,10.0,SSW,10.4,-,0.00,,Overcast,210,2013-02-03 00:42:00
7:54 PM,28.0,16.0,61,30.12,10.0,SSW,13.8,-,0.00,,Overcast,200,2013-02-03 00:54:00
8:06 PM,28.4,17.6,64,30.12,7.0,SSW,12.7,-,0.00,Snow,Light Snow,200,2013-02-03 01:06:00
8:13 PM,26.6,17.6,69,30.12,6.0,SSW,11.5,-,0.00,Snow,Light Snow,200,2013-02-03 01:13:00
8:19 PM,26.6,17.6,69,30.12,2.0,SSW,9.2,-,0.00,Snow,Light Snow,200,2013-02-03 01:19:00
8:50 PM,26.6,21.2,80,30.12,2.0,SSW,9.2,-,0.01,Snow,Light Snow,200,2013-02-03 01:50:00
8:54 PM,26.1,21.9,84,30.12,2.0,South,8.1,-,0.01,Snow,Light Snow,190,2013-02-03 01:54:00
9:22 PM,26.6,21.2,80,30.11,3.0,South,8.1,-,0.00,Snow,Light Snow,190,2013-02-03 02:22:00
9:48 PM,26.6,23.0,86,30.10,2.0,South,6.9,-,0.00,Snow,Light Snow,190,2013-02-03 02:48:00
9:49 PM,26.1,23.0,88,30.10,2.0,South,6.9,-,0.01,Snow,Light Snow,180,2013-02-03 02:49:00
9:52 PM,26.6,23.0,86,30.10,2.0,South,8.1,-,0.00,Snow,Light Snow,180,2013-02-03 02:52:00
10:01 PM,26.6,23.0,86,30.10,3.0,South,6.9,-,0.00,Snow,Light Snow,180,2013-02-03 03:01:00
10:17 PM,26.6,23.0,86,30.09,4.0,South,5.8,-,0.00,Snow,Light Snow,170,2013-02-03 03:17:00
10:46 PM,26.6,23.0,86,30.08,2.5,SSE,5.8,-,0.00,Snow,Light Snow,160,2013-02-03 03:46:00
10:54 PM,26.1,23.0,88,30.07,2.0,SSE,5.8,-,0.00,Snow,Light Snow,160,2013-02-03 03:54:00
10:59 PM,26.6,23.0,86,30.07,2.0,SSE,5.8,-,0.00,Snow,Light Snow,160,2013-02-03 03:59:00
11:35 PM,26.6,23.0,86,30.06,4.0,SSE,3.5,-,0.01,Snow,Light Snow,160,2013-02-03 04:35:00
11:54 PM,27.0,23.0,85,30.06,3.0,SSE,3.5,-,0.01,Snow,Light Snow,160,2013-02-03 04:54:00